ASX335 LIEE-LIMJ

Flight info

Callsign ASX335
Flight time 1h 7m
Altitude 34000
Route KOVAS Q125 DEXUL DCT SUKUN DCT MAMAR DCT ELB DCT BETEN M729 IDONA
Aircraft A320/M-SDE3FGHIRWY/LB1

Departure

Time 2026-04-22 19:08
Airport Cagliari Elmas Airport (LIEE)

Arrival

Time 2026-04-22 20:16
Airport Genoa Cristoforo Colombo Airport (LIMJ)
Time Latitude Longitude Altitude Speed Heading
2026-04-22 18:49 39.25362 9.05885 15 ft 0 kts 142°
2026-04-22 19:01 39.25363 9.05885 15 ft 1 kts 142°
2026-04-22 19:01 39.25382 9.05865 18 ft 4 kts 142°
2026-04-22 19:01 39.25399 9.05849 16 ft 4 kts 127°
2026-04-22 19:01 39.25409 9.05821 15 ft 4 kts 141°
2026-04-22 19:02 39.25423 9.05823 16 ft 4 kts 231°
2026-04-22 19:02 39.25435 9.05844 16 ft 0 kts 232°
2026-04-22 19:04 39.25424 9.05826 15 ft 5 kts 232°
2026-04-22 19:04 39.25394 9.05776 15 ft 8 kts 232°
2026-04-22 19:04 39.25354 9.05711 15 ft 11 kts 232°
2026-04-22 19:05 39.25370 9.05621 15 ft 13 kts 308°
2026-04-22 19:05 39.25402 9.05488 15 ft 17 kts 282°
2026-04-22 19:05 39.25457 9.05351 15 ft 17 kts 310°
2026-04-22 19:05 39.25542 9.05246 15 ft 15 kts 318°
2026-04-22 19:06 39.25618 9.05161 15 ft 14 kts 319°
2026-04-22 19:06 39.25684 9.05086 15 ft 12 kts 316°
2026-04-22 19:06 39.25749 9.05004 15 ft 13 kts 314°
2026-04-22 19:07 39.25691 9.04849 17 ft 13 kts 191°
2026-04-22 19:07 39.25632 9.04868 18 ft 14 kts 144°
2026-04-22 19:07 39.25583 9.04925 16 ft 0 kts 137°
2026-04-22 19:07 39.25582 9.04926 16 ft 1 kts 137°
2026-04-22 19:08 39.25485 9.05038 15 ft 53 kts 139°
2026-04-22 19:08 39.25031 9.05567 17 ft 118 kts 138°
2026-04-22 19:08 39.24284 9.06429 91 ft 160 kts 140°
2026-04-22 19:08 39.23422 9.07369 678 ft 161 kts 142°
2026-04-22 19:09 39.22576 9.08311 1328 ft 163 kts 136°
2026-04-22 19:09 39.21690 9.09350 1667 ft 182 kts 135°
2026-04-22 19:09 39.20698 9.10525 1925 ft 205 kts 135°
2026-04-22 19:09 39.19605 9.11810 2208 ft 225 kts 137°
2026-04-22 19:10 39.18186 9.12753 2876 ft 234 kts 174°
2026-04-22 19:10 39.16605 9.12353 3559 ft 237 kts 213°
2026-04-22 19:10 39.15348 9.10962 4330 ft 238 kts 231°
2026-04-22 19:10 39.14304 9.09318 5157 ft 239 kts 236°
2026-04-22 19:11 39.13597 9.07384 5938 ft 236 kts 264°
2026-04-22 19:11 39.13676 9.05299 6712 ft 235 kts 287°
2026-04-22 19:11 39.14468 9.03371 7079 ft 256 kts 314°
2026-04-22 19:11 39.15823 9.01796 7711 ft 266 kts 318°
2026-04-22 19:12 39.17215 9.00205 8539 ft 268 kts 317°
2026-04-22 19:12 39.18607 8.98594 9410 ft 270 kts 317°
2026-04-22 19:12 39.20006 8.96970 10248 ft 271 kts 317°
2026-04-22 19:12 39.21417 8.95332 11035 ft 273 kts 317°
2026-04-22 19:13 39.22959 8.93914 11797 ft 276 kts 331°
2026-04-22 19:13 39.24801 8.93061 12332 ft 292 kts 346°
2026-04-22 19:13 39.26913 8.92818 12485 ft 317 kts 354°
2026-04-22 19:13 39.29227 8.92664 12629 ft 339 kts 354°
2026-04-22 19:14 39.31600 8.92508 13072 ft 349 kts 354°
2026-04-22 19:14 39.34046 8.92344 13754 ft 353 kts 354°
2026-04-22 19:14 39.36505 8.92176 14379 ft 355 kts 354°
2026-04-22 19:14 39.38994 8.92000 14974 ft 359 kts 353°
2026-04-22 19:15 39.40652 8.91942 15357 ft 363 kts 358°
2026-04-22 19:15 39.44020 8.92695 16119 ft 375 kts 14°
2026-04-22 19:15 39.46434 8.94085 16674 ft 385 kts 24°
2026-04-22 19:15 39.48794 8.95779 17218 ft 389 kts 24°
2026-04-22 19:16 39.51170 8.97481 17767 ft 392 kts 24°
2026-04-22 19:16 39.53573 8.99201 18278 ft 396 kts 24°
2026-04-22 19:16 39.55996 9.00934 18744 ft 400 kts 24°
2026-04-22 19:16 39.58452 9.02688 19213 ft 403 kts 24°
2026-04-22 19:17 39.60927 9.04453 19685 ft 407 kts 24°
2026-04-22 19:17 39.63432 9.06209 20140 ft 409 kts 21°
2026-04-22 19:17 39.66069 9.07546 20615 ft 406 kts 11°
2026-04-22 19:17 39.68789 9.08466 21047 ft 408 kts
2026-04-22 19:18 39.71586 9.09399 21494 ft 411 kts
2026-04-22 19:18 39.74411 9.10345 21927 ft 414 kts
2026-04-22 19:18 39.77170 9.11271 22355 ft 417 kts
2026-04-22 19:18 39.79956 9.12206 22769 ft 420 kts
2026-04-22 19:19 39.82843 9.13180 23206 ft 423 kts 10°
2026-04-22 19:19 39.85658 9.14419 23597 ft 432 kts 19°
2026-04-22 19:19 39.88294 9.16252 23927 ft 440 kts 28°
2026-04-22 19:19 39.90915 9.18488 24273 ft 443 kts 28°
2026-04-22 19:20 39.93471 9.20661 24601 ft 445 kts 28°
2026-04-22 19:20 39.96090 9.22884 24950 ft 448 kts 28°
2026-04-22 19:20 39.98707 9.25111 25290 ft 450 kts 28°
2026-04-22 19:20 40.01390 9.27402 25644 ft 452 kts 28°
2026-04-22 19:21 40.04048 9.29672 25988 ft 454 kts 28°
2026-04-22 19:21 40.06689 9.31928 26312 ft 457 kts 28°
2026-04-22 19:21 40.09402 9.34251 26658 ft 458 kts 28°
2026-04-22 19:21 40.12074 9.36540 26972 ft 460 kts 28°
2026-04-22 19:22 40.14756 9.38842 27279 ft 462 kts 28°
2026-04-22 19:22 40.17422 9.41125 27597 ft 464 kts 28°
2026-04-22 19:22 40.20169 9.43479 27910 ft 466 kts 28°
2026-04-22 19:22 40.22887 9.45812 28218 ft 467 kts 28°
2026-04-22 19:23 40.25615 9.48161 28504 ft 469 kts 29°
2026-04-22 19:23 40.28308 9.50486 28873 ft 468 kts 29°
2026-04-22 19:23 40.31024 9.52834 29294 ft 467 kts 28°
2026-04-22 19:23 40.33740 9.55177 29695 ft 466 kts 28°
2026-04-22 19:24 40.36445 9.57512 30087 ft 465 kts 29°
2026-04-22 19:24 40.39157 9.59854 30440 ft 464 kts 28°
2026-04-22 19:24 40.41861 9.62189 30808 ft 462 kts 28°
2026-04-22 19:24 40.44542 9.64505 31196 ft 460 kts 29°
2026-04-22 19:25 40.47208 9.66815 31584 ft 458 kts 29°
2026-04-22 19:25 40.49858 9.69124 31972 ft 456 kts 29°
2026-04-22 19:25 40.52488 9.71422 32323 ft 454 kts 29°
2026-04-22 19:25 40.55083 9.73682 32674 ft 452 kts 29°
2026-04-22 19:26 40.57704 9.75965 33041 ft 450 kts 29°
2026-04-22 19:26 40.60420 9.78327 33419 ft 449 kts 29°
2026-04-22 19:26 40.62986 9.80563 33795 ft 447 kts 29°
2026-04-22 19:26 40.65576 9.82822 34064 ft 446 kts 29°
2026-04-22 19:27 40.68156 9.85073 34112 ft 446 kts 29°
2026-04-22 19:27 40.73336 9.89605 34113 ft 446 kts 29°
2026-04-22 19:28 40.77451 9.93750 34116 ft 450 kts 35°
2026-04-22 19:28 40.82249 9.99053 34114 ft 450 kts 35°
2026-04-22 19:29 40.87044 10.04347 34113 ft 449 kts 35°
2026-04-22 19:29 40.91787 10.09592 34117 ft 449 kts 35°
2026-04-22 19:30 40.95818 10.14065 34107 ft 449 kts 35°
2026-04-22 19:30 41.01408 10.20297 34115 ft 449 kts 35°
2026-04-22 19:31 41.06202 10.25644 34116 ft 450 kts 35°
2026-04-22 19:31 41.10981 10.30987 34119 ft 449 kts 35°
2026-04-22 19:32 41.15736 10.36315 34116 ft 449 kts 35°
2026-04-22 19:32 41.20516 10.41669 34117 ft 449 kts 35°
2026-04-22 19:33 41.25395 10.47153 34113 ft 449 kts 34°
2026-04-22 19:33 41.30176 10.52532 34114 ft 449 kts 34°
2026-04-22 19:34 41.34946 10.57923 34116 ft 450 kts 34°
2026-04-22 19:34 41.39704 10.63307 34119 ft 450 kts 34°
2026-04-22 19:35 41.44469 10.68696 34122 ft 450 kts 34°
2026-04-22 19:35 41.49245 10.74116 34123 ft 450 kts 34°
2026-04-22 19:36 41.53993 10.79509 34128 ft 450 kts 34°
2026-04-22 19:36 41.58780 10.84973 34132 ft 449 kts 34°
2026-04-22 19:37 41.63552 10.90420 34130 ft 449 kts 34°
2026-04-22 19:37 41.68285 10.95837 34131 ft 449 kts 34°
2026-04-22 19:38 41.73046 11.01283 34129 ft 447 kts 31°
2026-04-22 19:38 41.75622 11.03506 34129 ft 436 kts 19°
2026-04-22 19:38 41.78415 11.04917 34125 ft 425 kts
2026-04-22 19:39 41.84223 11.05396 34113 ft 408 kts 346°
2026-04-22 19:39 41.89488 11.02992 34114 ft 397 kts 328°
2026-04-22 19:40 41.94284 10.99381 34102 ft 397 kts 328°
2026-04-22 19:40 41.99127 10.95756 34109 ft 398 kts 328°
2026-04-22 19:41 42.03989 10.92118 34111 ft 398 kts 328°
2026-04-22 19:41 42.08794 10.88505 34120 ft 398 kts 328°
2026-04-22 19:42 42.13628 10.84863 34118 ft 398 kts 328°
2026-04-22 19:42 42.18457 10.81222 34128 ft 397 kts 328°
2026-04-22 19:43 42.25708 10.75746 34125 ft 397 kts 328°
2026-04-22 19:43 42.30526 10.72089 34130 ft 397 kts 328°
2026-04-22 19:44 42.35313 10.68454 34119 ft 396 kts 328°
2026-04-22 19:44 42.40139 10.64791 34127 ft 396 kts 328°
2026-04-22 19:45 42.44944 10.61121 34126 ft 396 kts 328°
2026-04-22 19:45 42.49752 10.57447 34133 ft 396 kts 328°
2026-04-22 19:46 42.54438 10.53874 34154 ft 396 kts 328°
2026-04-22 19:46 42.59248 10.50208 34156 ft 396 kts 328°
2026-04-22 19:47 42.63970 10.46590 34167 ft 396 kts 328°
2026-04-22 19:47 42.68750 10.42911 34164 ft 395 kts 328°
2026-04-22 19:48 42.73523 10.39226 34171 ft 394 kts 328°
2026-04-22 19:48 42.78315 10.35588 34171 ft 393 kts 329°
2026-04-22 19:49 42.83120 10.32002 34166 ft 392 kts 329°
2026-04-22 19:49 42.87873 10.28432 34164 ft 392 kts 328°
2026-04-22 19:50 42.92006 10.25305 34167 ft 391 kts 328°
2026-04-22 19:50 42.96710 10.21749 34167 ft 391 kts 328°
2026-04-22 19:51 43.01476 10.18129 34161 ft 390 kts 328°
2026-04-22 19:51 43.06133 10.14592 34166 ft 390 kts 328°
2026-04-22 19:52 43.10873 10.10991 34172 ft 389 kts 328°
2026-04-22 19:52 43.15578 10.07395 34182 ft 387 kts 328°
2026-04-22 19:53 43.20263 10.03812 34181 ft 386 kts 328°
2026-04-22 19:53 43.24964 10.00218 34188 ft 385 kts 328°
2026-04-22 19:54 43.29623 9.96648 34185 ft 384 kts 328°
2026-04-22 19:54 43.34312 9.93048 34186 ft 383 kts 328°
2026-04-22 19:55 43.38985 9.89455 33899 ft 383 kts 328°
2026-04-22 19:55 43.41340 9.87637 32274 ft 389 kts 328°
2026-04-22 19:55 43.43708 9.85802 30519 ft 399 kts 327°
2026-04-22 19:56 43.46193 9.83876 28522 ft 407 kts 327°
2026-04-22 19:56 43.48682 9.81953 26690 ft 412 kts 327°
2026-04-22 19:56 43.51210 9.79999 25132 ft 410 kts 327°
2026-04-22 19:56 43.53693 9.78081 23760 ft 404 kts 328°
2026-04-22 19:57 43.56131 9.76200 22263 ft 398 kts 328°
2026-04-22 19:57 43.58570 9.74316 20881 ft 391 kts 329°
2026-04-22 19:57 43.60948 9.72475 19574 ft 386 kts 329°
2026-04-22 19:57 43.63307 9.70642 18282 ft 382 kts 329°
2026-04-22 19:58 43.65574 9.68873 17392 ft 385 kts 330°
2026-04-22 19:58 43.67958 9.67011 16918 ft 376 kts 330°
2026-04-22 19:58 43.70219 9.65244 16394 ft 370 kts 330°
2026-04-22 19:58 43.72444 9.63505 15883 ft 365 kts 330°
2026-04-22 19:59 43.74725 9.61725 15343 ft 361 kts 331°
2026-04-22 20:00 43.87698 9.51582 12367 ft 339 kts 332°
2026-04-22 20:00 43.89045 9.50527 12281 ft 330 kts 332°
2026-04-22 20:01 43.91648 9.48481 12107 ft 314 kts 332°
2026-04-22 20:01 43.92926 9.47474 12019 ft 306 kts 332°
2026-04-22 20:01 43.94748 9.46038 11889 ft 296 kts 332°
2026-04-22 20:01 43.96516 9.44645 11758 ft 286 kts 332°
2026-04-22 20:02 43.98158 9.43098 11627 ft 278 kts 321°
2026-04-22 20:02 43.99457 9.41165 11493 ft 273 kts 309°
2026-04-22 20:02 44.00550 9.38960 11299 ft 269 kts 307°
2026-04-22 20:02 44.01608 9.36824 11046 ft 267 kts 307°
2026-04-22 20:03 44.02654 9.34725 10794 ft 265 kts 309°
2026-04-22 20:03 44.03943 9.32813 10523 ft 262 kts 324°
2026-04-22 20:03 44.05395 9.31275 10031 ft 268 kts 326°
2026-04-22 20:03 44.06378 9.30251 9868 ft 264 kts 328°
2026-04-22 20:04 44.08601 9.29318 9673 ft 243 kts
2026-04-22 20:04 44.10110 9.30067 9445 ft 235 kts 37°
2026-04-22 20:04 44.11222 9.31754 9199 ft 233 kts 52°
2026-04-22 20:04 44.12200 9.33557 8948 ft 233 kts 52°
2026-04-22 20:05 44.13182 9.35364 8715 ft 232 kts 52°
2026-04-22 20:05 44.14328 9.36914 8484 ft 230 kts 26°
2026-04-22 20:05 44.15887 9.37239 8245 ft 231 kts 349°
2026-04-22 20:05 44.17274 9.36155 8031 ft 232 kts 315°
2026-04-22 20:06 44.18381 9.34537 7801 ft 228 kts 321°
2026-04-22 20:06 44.19648 9.33178 7578 ft 224 kts 327°
2026-04-22 20:06 44.20930 9.31952 7380 ft 222 kts 327°
2026-04-22 20:06 44.22206 9.30736 7089 ft 223 kts 327°
2026-04-22 20:07 44.23479 9.29492 6817 ft 223 kts 326°
2026-04-22 20:07 44.24716 9.28251 6615 ft 221 kts 325°
2026-04-22 20:07 44.25956 9.26980 6399 ft 218 kts 324°
2026-04-22 20:07 44.27130 9.25760 6195 ft 215 kts 324°
2026-04-22 20:08 44.28356 9.24475 6007 ft 211 kts 324°
2026-04-22 20:08 44.29485 9.23290 5760 ft 210 kts 324°
2026-04-22 20:08 44.30635 9.22080 5533 ft 204 kts 324°
2026-04-22 20:08 44.31757 9.20898 5271 ft 199 kts 324°
2026-04-22 20:09 44.32842 9.19733 5026 ft 193 kts 320°
2026-04-22 20:09 44.33662 9.18323 4792 ft 187 kts 299°
2026-04-22 20:09 44.34149 9.16742 4679 ft 167 kts 291°
2026-04-22 20:09 44.34509 9.15263 4522 ft 155 kts 290°
2026-04-22 20:10 44.34827 9.13866 4338 ft 148 kts 289°
2026-04-22 20:10 44.35129 9.12505 4142 ft 146 kts 289°
2026-04-22 20:10 44.35426 9.11152 3938 ft 145 kts 289°
2026-04-22 20:10 44.35720 9.09805 3735 ft 145 kts 289°
2026-04-22 20:11 44.36012 9.08463 3527 ft 144 kts 289°
2026-04-22 20:11 44.36302 9.07127 3332 ft 143 kts 289°
2026-04-22 20:11 44.36591 9.05798 3123 ft 143 kts 289°
2026-04-22 20:11 44.36877 9.04474 2922 ft 141 kts 289°
2026-04-22 20:12 44.37164 9.03155 2724 ft 142 kts 289°
2026-04-22 20:12 44.37432 9.01910 2526 ft 141 kts 289°
2026-04-22 20:12 44.37620 9.01045 2396 ft 140 kts 289°
2026-04-22 20:12 44.37998 8.99296 2128 ft 140 kts 289°
2026-04-22 20:13 44.38279 8.97995 1909 ft 140 kts 289°
2026-04-22 20:13 44.38561 8.96691 1723 ft 139 kts 289°
2026-04-22 20:13 44.38845 8.95378 1505 ft 139 kts 290°
2026-04-22 20:13 44.39114 8.94127 1318 ft 138 kts 290°
2026-04-22 20:14 44.39390 8.92846 1120 ft 137 kts 290°
2026-04-22 20:14 44.39663 8.91582 921 ft 135 kts 291°
2026-04-22 20:14 44.39949 8.90333 719 ft 137 kts 291°
2026-04-22 20:14 44.40224 8.89057 575 ft 138 kts 289°
2026-04-22 20:15 44.40485 8.87770 350 ft 138 kts 288°
2026-04-22 20:15 44.40742 8.86457 146 ft 140 kts 288°
2026-04-22 20:15 44.40998 8.85157 30 ft 138 kts 288°
2026-04-22 20:15 44.41224 8.84063 21 ft 92 kts 284°
2026-04-22 20:16 44.41348 8.83429 21 ft 43 kts 284°
2026-04-22 20:16 44.41421 8.83155 21 ft 21 kts 310°
2026-04-22 20:16 44.41513 8.83091 21 ft 13 kts 17°
2026-04-22 20:16 44.41540 8.83208 22 ft 15 kts 102°
2026-04-22 20:17 44.41512 8.83353 21 ft 16 kts 105°
2026-04-22 20:17 44.41479 8.83518 20 ft 18 kts 106°
2026-04-22 20:17 44.41443 8.83700 20 ft 20 kts 105°
2026-04-22 20:17 44.41405 8.83900 20 ft 22 kts 105°
2026-04-22 20:18 44.41363 8.84113 20 ft 24 kts 104°
2026-04-22 20:18 44.41320 8.84336 20 ft 21 kts 105°
2026-04-22 20:18 44.41367 8.84501 21 ft 19 kts 53°
2026-04-22 20:18 44.41452 8.84656 20 ft 21 kts 52°
2026-04-22 20:19 44.41541 8.84818 20 ft 16 kts 52°
2026-04-22 20:19 44.41546 8.84916 20 ft 4 kts 105°
2026-04-22 20:19 44.41541 8.84944 21 ft 1 kts 105°
2026-04-22 20:19 44.41540 8.84948 21 ft 1 kts 105°
2026-04-22 20:20 44.41538 8.84957 22 ft 0 kts 105°
2026-04-22 20:20 44.41538 8.84958 22 ft 0 kts 105°